TimeCST,TemperatureF,Dew PointF,Humidity,Sea Level PressureIn,VisibilityMPH,Wind Direction,Wind SpeedMPH,Gust SpeedMPH,PrecipitationIn,Events,Conditions,WindDirDegrees,DateUTC
12:15 AM,9.3,6.6,89,30.42,10.0,Calm,Calm,-,N/A,,Clear,0,2013-01-15 06:15:00
12:55 AM,10.6,7.5,87,30.41,10.0,Calm,Calm,-,N/A,,Clear,0,2013-01-15 06:55:00
1:15 AM,9.3,6.8,89,30.41,10.0,Calm,Calm,-,N/A,,Clear,0,2013-01-15 07:15:00
1:55 AM,7.2,4.8,90,30.42,10.0,Calm,Calm,-,N/A,,Clear,0,2013-01-15 07:55:00
2:15 AM,8.4,5.9,89,30.42,10.0,Calm,Calm,-,N/A,,Clear,0,2013-01-15 08:15:00
2:35 AM,8.4,5.9,89,30.42,10.0,Calm,Calm,-,N/A,,Clear,0,2013-01-15 08:35:00
3:15 AM,7.9,5.4,89,30.42,10.0,Calm,Calm,-,N/A,,Clear,0,2013-01-15 09:15:00
3:35 AM,7.7,5.5,91,30.41,10.0,South,3.5,-,N/A,,Clear,190,2013-01-15 09:35:00
3:55 AM,7.5,5.0,89,30.41,10.0,South,3.5,-,N/A,,Clear,170,2013-01-15 09:55:00
4:15 AM,7.7,5.4,90,30.40,10.0,Calm,Calm,-,N/A,,Clear,0,2013-01-15 10:15:00
4:35 AM,7.3,4.8,89,30.39,10.0,South,3.5,-,N/A,,Clear,170,2013-01-15 10:35:00
4:55 AM,6.8,4.5,90,30.39,10.0,SSE,3.5,-,N/A,,Clear,160,2013-01-15 10:55:00
5:15 AM,6.8,4.5,90,30.39,10.0,SSE,3.5,-,N/A,,Clear,150,2013-01-15 11:15:00
5:35 AM,7.7,5.2,89,30.38,10.0,SSE,4.6,-,N/A,,Clear,150,2013-01-15 11:35:00
6:15 AM,7.2,4.6,89,30.38,10.0,Calm,Calm,-,N/A,,Clear,0,2013-01-15 12:15:00
6:35 AM,6.8,4.3,89,30.38,10.0,Calm,Calm,-,N/A,,Clear,0,2013-01-15 12:35:00
6:55 AM,6.6,4.1,89,30.40,10.0,SSE,4.6,-,N/A,,Clear,160,2013-01-15 12:55:00
7:15 AM,6.6,4.1,89,30.38,10.0,Calm,Calm,-,N/A,,Clear,0,2013-01-15 13:15:00
7:35 AM,6.8,4.3,89,30.39,10.0,Calm,Calm,-,N/A,,Clear,0,2013-01-15 13:35:00
7:55 AM,7.9,5.2,89,30.40,10.0,Calm,Calm,-,N/A,,Clear,0,2013-01-15 13:55:00
8:15 AM,9.5,6.8,89,30.41,10.0,Calm,Calm,-,N/A,,Clear,0,2013-01-15 14:15:00
8:35 AM,11.5,8.4,87,30.41,10.0,Calm,Calm,-,N/A,,Clear,0,2013-01-15 14:35:00
8:55 AM,13.1,9.5,86,30.41,10.0,South,3.5,-,N/A,,Clear,190,2013-01-15 14:55:00
9:15 AM,14.7,11.1,86,30.42,10.0,Calm,Calm,-,N/A,,Clear,0,2013-01-15 15:15:00
9:35 AM,15.8,11.7,84,30.42,10.0,Calm,Calm,-,N/A,,Clear,0,2013-01-15 15:35:00
9:55 AM,17.4,12.9,83,30.41,10.0,South,3.5,-,N/A,,Clear,180,2013-01-15 15:55:00
10:15 AM,19.2,13.6,79,30.40,10.0,South,3.5,-,N/A,,Clear,170,2013-01-15 16:15:00
10:35 AM,20.7,13.8,75,30.38,10.0,Calm,Calm,-,N/A,,Clear,0,2013-01-15 16:35:00
10:55 AM,21.6,14.2,73,30.34,10.0,Calm,Calm,-,0.04,,Clear,0,2013-01-15 16:55:00
11:15 AM,22.1,15.1,74,30.38,10.0,South,3.5,-,N/A,,Clear,170,2013-01-15 17:15:00
11:35 AM,23.0,14.4,70,30.37,10.0,Calm,Calm,-,N/A,,Clear,0,2013-01-15 17:35:00
11:55 AM,23.9,13.8,65,30.36,10.0,Calm,Calm,-,N/A,,Mostly Cloudy,0,2013-01-15 17:55:00
12:35 PM,25.5,13.1,59,30.32,10.0,Calm,Calm,-,N/A,,Scattered Clouds,0,2013-01-15 18:35:00
12:55 PM,25.5,13.1,59,30.31,10.0,Calm,Calm,-,N/A,,Clear,0,2013-01-15 18:55:00
1:35 PM,25.7,14.7,63,30.30,10.0,South,3.5,-,N/A,,Clear,180,2013-01-15 19:35:00
1:55 PM,26.1,15.3,64,30.29,10.0,South,3.5,-,N/A,,Clear,180,2013-01-15 19:55:00
2:15 PM,26.6,16.3,65,30.29,10.0,South,4.6,-,N/A,,Clear,190,2013-01-15 20:15:00
2:35 PM,26.6,16.0,64,30.29,10.0,South,5.8,-,N/A,,Clear,170,2013-01-15 20:35:00
2:55 PM,26.6,16.3,65,30.29,10.0,SSW,6.9,-,N/A,,Clear,200,2013-01-15 20:55:00
3:15 PM,26.4,16.5,66,30.29,10.0,South,6.9,-,N/A,,Clear,190,2013-01-15 21:15:00
3:35 PM,26.4,16.5,66,30.29,10.0,SSW,5.8,-,N/A,,Clear,210,2013-01-15 21:35:00
4:15 PM,25.3,17.6,72,30.28,10.0,SSW,4.6,-,N/A,,Clear,210,2013-01-15 22:15:00
4:35 PM,24.4,18.3,78,30.28,10.0,WSW,3.5,-,N/A,,Clear,240,2013-01-15 22:35:00
4:55 PM,22.1,18.1,85,30.28,10.0,SW,4.6,-,N/A,,Clear,220,2013-01-15 22:55:00
5:15 PM,21.9,18.3,86,30.28,10.0,SW,3.5,-,N/A,,Mostly Cloudy,230,2013-01-15 23:15:00
5:35 PM,19.6,17.2,91,30.27,10.0,SSW,4.6,-,N/A,,Mostly Cloudy,210,2013-01-15 23:35:00
5:55 PM,17.1,14.5,90,30.26,10.0,SSW,3.5,-,N/A,,Mostly Cloudy,210,2013-01-15 23:55:00
6:15 PM,18.1,15.8,91,30.26,10.0,SSW,3.5,-,N/A,,Scattered Clouds,210,2013-01-16 00:15:00
6:35 PM,15.8,13.3,90,30.24,10.0,South,3.5,-,N/A,,Clear,190,2013-01-16 00:35:00
6:55 PM,16.3,14.4,92,30.23,10.0,SSW,3.5,-,N/A,,Clear,200,2013-01-16 00:55:00
7:15 PM,14.9,12.9,92,30.22,10.0,Calm,Calm,-,N/A,,Clear,0,2013-01-16 01:15:00
7:35 PM,16.5,14.7,93,30.21,10.0,Calm,Calm,-,N/A,,Clear,0,2013-01-16 01:35:00
7:55 PM,16.3,14.0,90,30.20,10.0,Calm,Calm,-,N/A,,Clear,0,2013-01-16 01:55:00
8:15 PM,14.4,12.4,92,30.19,10.0,Calm,Calm,-,N/A,,Clear,0,2013-01-16 02:15:00
8:35 PM,11.7,10.0,93,30.18,10.0,SSE,3.5,-,N/A,,Clear,160,2013-01-16 02:35:00
8:55 PM,11.3,9.7,93,30.17,10.0,SSE,3.5,-,N/A,,Clear,150,2013-01-16 02:55:00
9:15 PM,11.1,9.1,92,30.16,10.0,SSE,4.6,-,N/A,,Clear,160,2013-01-16 03:15:00
9:35 PM,11.3,9.3,92,30.16,10.0,South,3.5,-,N/A,,Clear,170,2013-01-16 03:35:00
9:55 PM,12.7,10.6,91,30.14,10.0,SSE,4.6,-,N/A,,Clear,160,2013-01-16 03:55:00
10:15 PM,10.4,8.4,92,30.14,10.0,Calm,Calm,-,N/A,,Clear,0,2013-01-16 04:15:00
10:35 PM,10.8,8.6,91,30.14,10.0,South,3.5,-,N/A,,Clear,180,2013-01-16 04:35:00
10:55 PM,9.5,7.7,92,30.13,10.0,Calm,Calm,-,N/A,,Clear,0,2013-01-16 04:55:00
11:15 PM,9.9,8.2,93,30.12,10.0,South,3.5,-,N/A,,Clear,190,2013-01-16 05:15:00
11:35 PM,9.1,7.5,93,30.12,10.0,Calm,Calm,-,N/A,,Clear,0,2013-01-16 05:35:00